Weather in Emmen

Netherlands     52°47′25″N   6°53′46″E
temp.,
°C
wind,
m/s
gust,
m/s
humid.,
%
clouds,
%
prec.,
mm/h
press.,
hPa
HPBL,
m
26 june, sun
sun2623:00+18ene3489100 0.4 101147
02:00+16sw119080 1.6 101211
05:00+17sw4895100 0.1 1012239
08:00+17wsw478896 0.1 1014379
11:00+20wsw456417 0.0 1015970
14:00+23wsw4551100 0.0 10161650
17:00+18sse4578100 0.3 1016221
20:00+17sse2481100 0.3 1016141
27 june, mon
mon2723:00+15ese2290100 0.0 101633
02:00+15s2294100 0.9 101670
05:00+15e2399100 6.6 1015126
08:00+15nw2398100 10.1 1015128
11:00+18wsw128399 0.9 1016584
14:00+20wsw557181 1.9 10161048
17:00+21w6755100 0.9 10171684
20:00+18w4873100 0.9 1018375
28 june, tue
tue2823:00+13w338551 0.0 102029
02:00+12wsw228312 0.0 102119
05:00+12s22835 0.0 102121
08:00+15sw35695 0.0 1022253
11:00+19sw34530 0.0 1022836
14:00+22ssw35466 0.0 10202070
17:00+24sw134127 0.0 10192147
20:00+23ne115763 0.0 101819
29 june, wed
wed2923:00+17ene457318 0.0 101874
02:00+15e35716 0.0 101762
05:00+15ese367763 0.0 101798
08:00+19se357199 0.0 1016182
11:00+24se34565 0.0 1016774
14:00+27s4548100 0.0 10152433
17:00+23ese5869100 0.1 1015322
20:00+24se236890 0.1 101456
30 june, thu
thu3023:00+20se12709 0.0 101411
02:00+19ne227599 0.0 101424
05:00+19ese367064 0.0 1013102
08:00+20ese476787 0.0 1013192
11:00+24ese367042 0.8 1013539
14:00+29ese56407 0.8 10112149
17:00+29ese674321 0.0 10102446
20:00+25ene510580 0.0 1009284